Flag for Mexico Weather past 2 weeks in Matamoros, Tamaulipas, Mexico

Now
73 °F

Fog.


Feels Like: 71 °F
Forecast: 71 / 80 °F
Wind: 17 mph from South

Location: Brownsville / South Padre Island International Airport

Current Time: Apr 1, 2015 at 5:48:17 AM

Latest Report: Apr 1, 2015 at 4:53 AM


Visibility: 6 mi

Pressure: 29.90 "Hg

Humidity: 90%

Dew point: 70 °F

Location of MatamorosLocation

Historic Weather in Matamoros — Graph

°F

Matamoros temperature yesterday

Maximum temperature yesterday: 80 °F (at 1:53 PM)
Minimum temperature yesterday: 68 °F (at 12:53 AM)
Average temperature yesterday: 74 °F

Past Weeks' High & Low Weather Summary

 TemperatureHumidityPressure
High82 °F (Mar 20, 3:53 PM)100% (Mar 17, 4:53 AM)30.25 "Hg (Mar 17, 4:53 AM)
Low53 °F (Mar 27, 7:53 AM)25% (Mar 27, 2:53 PM)29.82 "Hg (Mar 26, 5:53 AM)
Average71 °F84%30.03 "Hg
* Reported Mar 17 4:53 AM — Apr 1 4:53 AM, Matamoros, Weather by CustomWeather, © 2015

Note: Actual official high and low records may vary slightly from our data, if they occured in-between our weather recording intervals... More about our weather records

Advertising

Matamoros weather history for previous 24 hours

 ConditionsComfort  
Time TempWeatherWind HumidityBarometerVisibility
4:53 AM
Wed, Apr 1
73 °FFog.17 mph90%29.90 "Hg6 mi
3:53 AM73 °FFog.15 mph94%29.90 "Hg6 mi
2:53 AM72 °FLow clouds.12 mph93%29.93 "Hg7 mi
1:53 AM73 °FLow clouds.15 mph90%29.95 "Hg7 mi
1:00 AM71 °FPassing clouds.10 mph93%29.97 "Hg7 mi
12:53 AM71 °FPartly cloudy.9 mph93%29.97 "Hg7 mi
11:53 PM
Tue, Mar 31
71 °FClear.12 mph93%29.98 "Hg8 mi
10:53 PM72 °FClear.10 mph91%29.99 "Hg8 mi
9:53 PM72 °FClear.10 mph87%29.99 "Hg9 mi
8:53 PM73 °FClear.12 mph88%29.97 "Hg9 mi
7:53 PM73 °FSunny.13 mph88%29.96 "Hg8 mi
6:53 PM75 °FPassing clouds.18 mph79%29.96 "Hg9 mi
5:53 PM77 °FScattered clouds.22 mph74%29.94 "Hg10 mi
4:53 PM79 °FBroken clouds.17 mph69%29.95 "Hg10 mi
3:53 PM80 °FPartly sunny.20 mph67%29.97 "Hg10 mi
2:53 PM80 °FBroken clouds.23 mph69%29.99 "Hg10 mi
1:53 PM80 °FBroken clouds.22 mph69%30.01 "Hg9 mi
12:53 PM78 °FMostly cloudy.20 mph74%30.04 "Hg8 mi
11:53 AM78 °FPartly sunny.20 mph74%30.06 "Hg7 mi
10:53 AM77 °FOvercast.17 mph82%30.08 "Hg6 mi
9:53 AM74 °FFog.14 mph88%30.07 "Hg5 mi
8:53 AM72 °FFog.13 mph93%30.05 "Hg4 mi
7:53 AM71 °FFog.8 mph96%30.04 "Hg5 mi
6:53 AM71 °FLow clouds.10 mph93%30.03 "Hg7 mi
5:53 AM70 °FFog.9 mph97%30.02 "Hg6 mi
Weather by CustomWeather, © 2015

See weather overviewHow to use our weather pages